Wind_Speed
29 29 29 27 27 28 29 29 30 30 30 28 28 28 27 27 26 25 24 26 28 29 30 31 32 34 35 36 37 38 38 38 39 39 40 41 41 41 41 41 41 41 40 41
28 28 29 28 27 28 28 29 30 30 28 28 28 28 28 27 27 26 25 25 27 28 29 30 32 33 34 35 36 36 36 37 38 38 39 40 42 42 41 41 41 41 41 41
27 28 29 28 28 29 29 29 30 29 28 28 27 27 27 28 27 27 27 26 26 27 29 30 31 32 33 34 34 35 36 37 38 38 39 40 41 41 41 40 40 41 42 42
27 27 29 28 28 29 30 30 30 29 28 28 27 28 28 27 27 27 28 27 27 27 28 28 29 30 31 32 33 35 36 36 37 38 39 40 41 41 40 40 40 40 41 42
28 29 29 27 27 28 28 28 28 28 28 28 28 28 28 28 28 28 28 28 28 27 28 28 29 29 29 30 32 33 34 35 36 37 38 39 39 40 40 39 39 39 40 41
28 29 29 27 26 27 27 27 26 27 28 28 28 28 28 29 28 29 28 28 28 28 28 28 28 29 29 30 31 32 33 34 35 36 37 37 37 38 39 38 38 38 39 39
27 28 28 26 25 26 27 27 27 27 27 27 27 27 27 28 29 29 29 29 29 29 28 28 28 29 29 30 31 31 33 34 35 35 35 36 36 37 37 37 37 37 37 38
27 28 26 26 26 27 27 27 27 27 27 28 28 27 27 28 28 28 29 29 29 29 29 29 29 29 30 30 30 30 30 31 32 33 34 34 34 34 35 35 35 36 36 37
27 26 25 25 26 27 27 27 27 27 27 28 28 28 28 28 28 28 28 28 28 29 29 29 29 29 29 29 29 29 30 30 30 31 31 32 32 33 34 34 35 35 36 37
27 26 25 25 26 27 27 27 27 27 27 28 28 28 28 28 27 28 28 29 29 29 29 29 29 29 29 29 29 29 29 30 30 30 30 31 32 33 34 34 34 35 35 35
27 26 26 26 27 28 27 27 27 27 27 27 27 27 27 27 27 27 28 28 28 28 28 28 28 29 29 29 29 29 29 29 29 29 30 31 32 32 33 33 34 34 34 34
27 26 27 27 28 28 27 27 27 27 27 27 27 26 26 26 26 27 27 27 27 27 27 27 28 29 29 29 29 29 29 29 29 30 30 30 30 31 31 31 32 32 33 33
28 28 28 27 28 28 27 27 27 27 27 27 27 26 26 26 26 27 26 26 26 26 25 25 26 27 28 30 30 29 29 29 30 30 29 29 29 30 30 30 30 31 32 32
28 29 29 29 28 28 27 27 28 28 28 27 27 27 27 27 26 26 26 25 25 25 24 25 26 27 28 28 29 30 30 30 30 29 28 28 29 29 29 29 29 30 30 30
28 29 29 29 29 28 28 28 28 28 28 28 28 28 28 27 27 27 26 25 24 24 24 25 26 26 27 27 28 29 30 30 30 29 29 29 29 29 29 29 28 28 29 29
28 28 28 28 28 28 28 28 28 28 28 28 28 27 27 26 26 27 26 25 24 24 25 25 26 26 26 26 27 28 28 29 29 29 29 29 28 28 28 28 28 27 27 27
26 26 27 27 26 26 27 27 27 27 27 27 26 26 25 25 25 25 25 25 25 25 26 26 26 25 25 25 26 26 26 27 27 27 27 28 27 27 27 27 27 26 26 26
24 24 24 24 24 25 26 26 25 25 25 25 24 25 25 25 25 24 25 25 25 26 26 25 25 25 25 25 25 25 25 25 25 25 25 26 26 26 26 26 26 26 25 25
23 23 23 24 24 24 25 24 24 24 24 24 24 23 23 23 23 23 24 24 24 24 24 24 24 24 23 24 24 24 24 24 24 24 23 24 24 24 25 25 25 26 25 25
23 22 22 22 23 23 23 23 23 23 23 22 22 22 22 22 22 22 22 22 22 22 22 22 23 23 23 23 23 23 23 23 22 22 22 22 22 22 23 23 24 24 25 24
22 22 22 23 22 22 22 22 22 21 21 20 20 21 21 21 21 21 21 21 21 21 21 21 21 21 22 22 21 21 21 21 21 21 21 22 22 22 22 22 23 23 24 24
23 23 22 21 21 21 21 21 21 20 20 20 21 21 21 21 21 21 21 21 20 20 20 20 20 20 20 20 20 20 20 20 21 21 21 22 22 22 22 22 22 23 23 23
22 21 21 20 20 20 20 20 21 21 21 21 21 21 21 21 20 20 20 20 20 19 19 19 19 19 19 18 18 19 20 20 20 21 21 21 22 22 22 22 22 22 22 22
20 19 19 19 19 19 20 20 20 20 20 20 20 20 20 20 19 19 19 19 19 19 19 19 18 18 17 18 18 18 19 19 20 20 21 21 21 21 21 21 22 22 22 22
18 18 18 19 19 19 19 19 19 19 19 19 19 19 19 19 19 19 19 19 19 19 19 18 18 17 17 17 18 18 18 19 19 19 20 20 20 20 20 20 20 21 21 21
18 19 19 19 19 19 19 19 18 18 18 19 19 20 20 19 19 18 18 18 18 18 18 18 17 17 17 17 17 18 18 18 18 18 18 19 19 19 19 19 19 19 19 19
18 19 19 19 19 19 18 18 18 18 19 19 19 20 20 19 19 18 18 17 17 17 18 18 17 17 17 17 17 17 17 17 18 18 18 18 19 19 19 19 20 20 20 20
Wind_Direction
266 266 267 267 268 269 271 274 276 278 278 277 277 276 275 275 274 271 269 263 259 257 256 258 258 257 256 255 254 254 254 255 256 255 255 254 253 252 252 253 253 253 253 253
266 266 267 267 268 269 272 275 276 277 277 276 277 276 274 273 273 272 271 267 263 259 258 259 260 258 257 256 255 254 255 255 256 255 255 254 253 253 253 253 253 252 253 253
268 267 268 268 268 269 273 275 275 276 276 274 274 275 275 274 272 272 271 268 265 262 261 260 260 258 257 256 255 254 254 255 256 256 255 254 253 254 255 255 254 253 253 253
269 270 270 274 273 273 274 274 273 274 274 273 272 272 272 272 272 271 271 271 268 265 262 260 259 258 258 257 256 255 255 255 256 257 256 255 254 254 254 254 254 254 253 254
270 271 273 275 276 277 275 274 273 274 274 273 272 272 271 271 271 271 272 272 269 266 264 261 260 258 258 259 258 258 257 257 258 258 258 257 255 254 253 252 252 251 252 254
269 271 274 278 279 279 277 275 275 274 274 273 272 272 271 271 271 270 271 272 270 269 267 264 262 260 260 260 259 259 258 259 259 259 259 258 255 253 252 251 250 250 251 253
269 272 276 279 280 280 278 279 278 277 275 273 271 272 271 270 271 271 271 270 270 270 269 266 263 262 262 261 260 260 260 259 259 258 258 258 256 254 252 251 251 251 252 252
271 274 277 279 279 279 281 280 279 278 276 273 272 271 271 270 271 271 269 269 269 270 269 266 264 264 263 261 261 261 260 258 258 258 258 256 254 252 251 250 252 253 253 252
273 275 277 278 278 279 278 279 279 278 275 273 272 272 271 271 271 270 269 269 270 270 269 267 265 264 262 260 261 262 260 258 258 258 256 254 252 251 250 252 252 253 253 253
273 274 276 276 276 276 277 279 280 278 276 274 272 272 272 272 272 272 270 269 268 268 268 267 265 262 261 261 260 260 260 259 259 259 258 255 253 252 252 252 253 254 253 253
272 274 275 276 276 278 279 280 280 279 277 275 274 274 273 272 273 273 271 270 268 267 267 266 264 261 260 260 261 260 260 260 260 259 258 256 253 253 254 254 255 254 254 254
274 275 275 276 276 276 276 277 278 278 278 277 276 275 274 273 273 272 272 270 268 267 267 266 264 262 261 262 262 261 262 262 261 261 259 256 253 252 253 255 255 254 254 255
274 274 274 276 277 276 276 276 277 277 277 276 276 275 274 273 272 271 271 270 268 268 267 265 263 264 264 263 262 262 263 263 264 263 261 257 253 253 254 256 256 256 256 258
273 273 274 275 276 276 277 278 278 278 277 276 276 274 273 272 271 270 269 269 269 269 268 267 266 266 266 265 263 261 263 263 263 261 261 258 256 255 255 256 256 256 257 259
275 274 274 273 273 275 277 278 279 278 277 276 276 275 273 271 269 267 268 268 268 269 270 269 268 268 268 267 265 263 263 262 260 259 259 258 256 256 256 257 256 256 257 259
277 277 276 275 275 276 278 279 279 278 277 276 275 275 273 270 268 266 267 266 266 269 270 270 271 270 270 270 268 266 264 261 259 260 258 257 256 256 256 257 256 256 257 259
278 277 277 277 278 278 279 279 279 278 276 275 274 272 270 268 268 267 267 266 267 268 269 270 271 270 270 270 269 268 265 262 261 260 258 256 255 255 255 255 254 255 257 259
278 278 279 279 278 278 279 279 278 277 275 274 272 271 270 269 269 269 269 269 269 271 270 269 269 268 268 268 268 267 265 264 262 260 258 255 255 255 253 253 254 256 257 259
278 279 279 279 279 278 278 278 276 275 274 273 271 270 270 270 270 269 269 270 271 271 270 269 269 268 267 267 266 266 265 263 262 259 257 256 255 255 254 254 256 257 259 261
280 279 280 281 282 281 279 278 276 274 273 272 270 270 271 272 272 271 270 271 272 272 271 270 269 268 267 267 266 265 263 261 259 258 257 256 255 255 256 256 257 258 258 260
280 280 281 283 284 283 282 279 276 274 273 271 271 272 273 275 275 273 271 271 272 272 272 271 270 268 268 266 264 262 261 260 259 258 257 256 256 256 257 258 258 259 260 261
283 282 281 281 281 281 281 279 276 273 271 271 272 274 275 275 275 273 270 269 271 272 273 271 269 268 267 265 262 261 261 261 260 259 258 257 256 257 258 258 259 261 261 261
285 283 281 280 279 278 278 278 276 273 271 272 273 275 275 275 274 271 270 270 270 272 272 271 270 268 265 263 262 262 262 262 261 259 258 258 258 258 258 259 260 261 261 261
284 283 281 279 279 278 277 276 275 273 272 273 274 275 275 275 274 271 271 271 270 270 271 270 269 267 264 262 262 263 264 264 262 260 259 258 257 258 258 259 259 260 260 261
282 282 281 280 281 281 280 278 276 275 274 274 274 274 274 275 274 272 272 271 269 268 268 267 267 265 264 264 265 266 266 265 263 261 260 259 259 259 259 258 258 259 260 261
283 283 284 284 284 282 279 277 276 276 277 277 275 274 274 274 275 274 272 270 268 267 266 266 265 264 265 267 267 266 266 265 264 262 262 262 261 260 260 258 258 260 262 261
286 285 286 285 284 281 279 277 276 277 278 279 277 275 274 273 273 273 272 269 266 265 264 263 263 264 266 268 268 268 266 265 265 264 264 264 263 260 259 259 259 259 260 260
Height
5586 5586 5586 5586 5586 5585 5584 5583 5582 5582 5581 5580 5579 5578 5578 5577 5576 5576 5576 5576 5577 5577 5578 5579 5580 5582 5582 5584 5585 5587 5588 5590 5592 5594 5596 5597 5599 5601 5604 5605 5607 5609 5612 5614
5577 5577 5577 5578 5578 5577 5576 5575 5574 5573 5573 5572 5571 5570 5570 5569 5569 5568 5568 5568 5569 5569 5570 5571 5571 5572 5573 5574 5575 5576 5578 5580 5582 5583 5585 5587 5589 5591 5593 5595 5597 5599 5601 5603
5569 5569 5568 5569 5571 5569 5569 5568 5566 5565 5566 5564 5563 5562 5562 5562 5562 5561 5561 5560 5560 5561 5562 5562 5563 5563 5564 5565 5566 5567 5569 5570 5571 5573 5575 5576 5578 5580 5582 5584 5586 5588 5590 5592
5560 5561 5560 5564 5562 5561 5560 5559 5558 5557 5557 5556 5555 5555 5554 5554 5553 5553 5552 5552 5552 5552 5553 5553 5554 5555 5555 5556 5557 5558 5559 5560 5561 5562 5564 5565 5567 5569 5571 5573 5575 5577 5579 5581
5552 5552 5552 5555 5554 5552 5551 5551 5550 5549 5548 5547 5547 5547 5547 5546 5545 5544 5544 5544 5544 5544 5544 5545 5545 5545 5546 5547 5547 5548 5549 5550 5551 5552 5553 5554 5556 5558 5560 5562 5564 5566 5568 5570
5544 5544 5545 5549 5547 5544 5543 5543 5543 5541 5540 5539 5538 5539 5539 5538 5537 5536 5536 5536 5535 5535 5535 5536 5536 5537 5537 5538 5538 5539 5539 5540 5541 5541 5542 5543 5545 5546 5549 5551 5553 5555 5557 5559
5536 5535 5537 5540 5538 5536 5536 5536 5534 5533 5531 5530 5530 5530 5530 5529 5528 5528 5527 5527 5527 5527 5527 5527 5527 5527 5528 5528 5529 5529 5529 5530 5531 5531 5532 5533 5534 5536 5538 5540 5543 5545 5547 5549
5528 5528 5531 5530 5529 5528 5528 5526 5525 5523 5522 5522 5521 5521 5520 5520 5519 5519 5518 5518 5518 5518 5518 5518 5518 5518 5519 5519 5519 5520 5520 5520 5521 5521 5522 5523 5524 5526 5528 5530 5532 5534 5536 5538
5522 5523 5523 5521 5520 5519 5518 5517 5516 5515 5514 5513 5512 5512 5512 5511 5511 5510 5510 5509 5509 5509 5509 5509 5509 5509 5509 5510 5510 5510 5511 5511 5512 5512 5513 5514 5515 5517 5519 5520 5522 5524 5525 5527
5513 5514 5514 5513 5511 5510 5509 5508 5507 5506 5505 5504 5504 5503 5503 5502 5502 5501 5501 5500 5500 5500 5500 5500 5500 5500 5500 5500 5501 5502 5502 5503 5503 5503 5504 5505 5506 5507 5509 5510 5512 5513 5515 5517
5504 5505 5505 5504 5503 5502 5500 5499 5498 5498 5497 5496 5495 5495 5494 5494 5493 5493 5492 5492 5491 5491 5491 5491 5491 5491 5491 5492 5492 5493 5493 5494 5494 5494 5495 5495 5497 5498 5499 5501 5502 5503 5505 5506
5497 5497 5496 5496 5494 5493 5492 5491 5490 5489 5489 5488 5487 5486 5486 5485 5485 5484 5484 5483 5483 5483 5482 5482 5482 5482 5483 5483 5483 5484 5485 5485 5485 5485 5486 5486 5487 5489 5490 5491 5492 5493 5495 5496
5488 5487 5486 5486 5485 5484 5483 5482 5482 5481 5480 5479 5478 5478 5477 5477 5476 5476 5475 5475 5475 5474 5474 5474 5474 5474 5474 5474 5474 5475 5476 5476 5476 5476 5477 5477 5478 5480 5481 5483 5483 5484 5485 5486
5479 5478 5477 5477 5477 5475 5474 5474 5473 5472 5471 5470 5470 5469 5468 5468 5467 5467 5467 5467 5466 5466 5466 5465 5465 5465 5465 5465 5465 5466 5466 5467 5467 5468 5468 5469 5470 5471 5472 5474 5475 5476 5477 5477
5470 5469 5468 5468 5467 5467 5466 5465 5464 5463 5462 5461 5460 5460 5459 5459 5459 5459 5458 5458 5458 5458 5458 5457 5457 5456 5456 5456 5456 5456 5457 5457 5458 5459 5459 5460 5461 5462 5463 5465 5466 5467 5468 5468
5461 5460 5459 5458 5458 5458 5457 5456 5455 5454 5453 5452 5451 5451 5450 5450 5450 5450 5450 5450 5450 5450 5449 5449 5448 5448 5447 5447 5447 5447 5447 5448 5448 5449 5450 5451 5452 5453 5454 5455 5457 5458 5459 5459
5452 5451 5450 5450 5449 5449 5448 5447 5446 5445 5444 5443 5442 5442 5442 5442 5442 5442 5442 5442 5442 5441 5441 5440 5440 5439 5439 5438 5438 5438 5438 5439 5439 5440 5441 5442 5443 5444 5445 5446 5448 5449 5450 5450
5443 5443 5442 5442 5441 5440 5439 5438 5437 5436 5435 5435 5434 5434 5434 5434 5433 5433 5433 5433 5433 5433 5432 5431 5431 5431 5431 5430 5430 5430 5430 5431 5431 5432 5432 5433 5434 5435 5436 5438 5439 5440 5441 5442
5435 5435 5434 5433 5433 5432 5431 5430 5429 5428 5428 5427 5426 5426 5426 5426 5425 5425 5425 5425 5425 5424 5424 5423 5423 5423 5422 5422 5422 5422 5422 5423 5423 5424 5424 5425 5426 5427 5428 5430 5431 5432 5433 5433
5428 5427 5426 5425 5424 5423 5422 5422 5421 5420 5420 5419 5419 5418 5418 5418 5417 5417 5417 5417 5416 5416 5416 5415 5415 5415 5415 5414 5414 5414 5415 5415 5416 5416 5417 5418 5419 5420 5421 5422 5422 5423 5424 5425
5420 5419 5418 5417 5416 5416 5415 5414 5413 5413 5413 5412 5412 5411 5411 5410 5410 5410 5410 5409 5409 5409 5408 5408 5407 5407 5407 5407 5407 5407 5408 5408 5408 5409 5410 5411 5411 5412 5413 5414 5415 5415 5416 5416
5412 5411 5410 5409 5409 5408 5408 5407 5406 5406 5406 5405 5405 5405 5404 5404 5403 5403 5403 5403 5402 5402 5401 5401 5401 5400 5400 5400 5400 5400 5401 5401 5402 5402 5403 5403 5404 5405 5406 5406 5407 5408 5408 5408
5404 5404 5403 5402 5402 5401 5401 5400 5400 5399 5399 5399 5398 5398 5397 5397 5396 5396 5396 5396 5395 5395 5395 5394 5394 5394 5394 5394 5394 5394 5394 5395 5395 5395 5396 5396 5397 5398 5398 5399 5400 5400 5400 5401
5397 5396 5396 5395 5395 5394 5394 5393 5393 5393 5392 5392 5392 5391 5391 5390 5390 5389 5389 5389 5389 5389 5388 5388 5388 5388 5388 5388 5388 5388 5388 5388 5389 5389 5389 5390 5390 5391 5391 5392 5392 5393 5393 5393
5390 5390 5390 5389 5389 5388 5387 5387 5386 5386 5386 5386 5385 5385 5384 5384 5383 5383 5383 5382 5382 5382 5382 5382 5382 5382 5382 5382 5382 5382 5382 5382 5382 5382 5383 5383 5383 5384 5384 5384 5385 5385 5386 5386
5385 5384 5384 5383 5382 5381 5381 5380 5380 5380 5380 5379 5379 5378 5378 5377 5377 5376 5376 5376 5376 5376 5376 5376 5376 5376 5376 5376 5376 5376 5376 5376 5376 5376 5376 5377 5377 5377 5377 5377 5378 5378 5378 5379
5379 5379 5378 5377 5376 5375 5375 5374 5374 5374 5374 5373 5373 5372 5371 5371 5370 5370 5370 5369 5369 5370 5370 5370 5370 5370 5371 5371 5371 5370 5370 5370 5370 5370 5370 5370 5370 5370 5370 5370 5371 5371 5371 5372